Weather History for Washington, PA

Change the Weather History Date:

Saturday, September 28, 2013

  Actual Average Record
Temperature  
Mean Temperature 57 °F -  
Max Temperature 73 °F 67 °F 84 °F (1999)
Min Temperature 41 °F 45 °F 41 °F (2000)
Degree Days  
Heating Degree Days 8    
Growing Degree Days 7 (Base 50)    
Moisture  
Dew Point 49 °F    
Average Humidity 79    
Maximum Humidity 100    
Minimum Humidity 50    
Precipitation  
Precipitation 0.00 in - - ()
Sea Level Pressure  
Sea Level Pressure 30.22 in    
Wind  
Wind Speed 2 mph (SE)    
Max Wind Speed 8 mph    
Max Gust Speed -    
Visibility 7 miles    
Events      
Averages and records for this station are not official NWS values.
T = Trace of Precipitation, MM = Missing Value Source: NWS Daily Summary

Daily Weather History Graph

Daily Weather History Graph

Search for Another Location

Airport:

Trip Planner

Search our weather history database for the weather conditions in past years. The results will help you decide how hot, cold, wet, or windy it might be!

Date:

Astronomy

Sep. 28, 2013 Rise Set
Actual Time 7:14 AM EDT 7:07 PM EDT
Civil Twilight 6:47 AM EDT 7:34 PM EDT
Nautical Twilight 6:16 AM EDT 8:06 PM EDT
Astronomical Twilight 5:44 AM EDT 8:38 PM EDT
Moon 1:00 AM EDT (9/28) 3:26 PM EDT (9/28)
Length of Visible Light 12h 47m
Length of Day
11h 53m
Last Quarter, 36% of the Moon is Illuminated
Sep 28
Last Quarter
Oct 4
New
Oct 11
First Quarter
Oct 18
Full
Oct 26
Last Quarter

Hourly Weather History & Observations

Time (EDT) Temp. Dew Point Humidity Pressure Visibility Wind Dir Wind Speed Gust Speed Precip Events Conditions
12:15 AM 48.2 °F 46.4 °F 93% 30.22 in 5.0 mi Calm Calm - N/A   Clear
12:35 AM 48.2 °F 48.2 °F 100% 30.22 in 2.5 mi Calm Calm - N/A   Clear
12:55 AM 46.4 °F 46.4 °F 100% 30.22 in 0.8 mi Calm Calm - N/A   Unknown
1:15 AM 48.2 °F 46.4 °F 93% 30.22 in 1.5 mi Calm Calm - N/A   Clear
1:35 AM 46.4 °F 44.6 °F 93% 30.22 in 1.2 mi Calm Calm - N/A   Clear
1:55 AM 46.4 °F 44.6 °F 93% 30.21 in 0.8 mi Calm Calm - N/A   Unknown
2:15 AM 46.4 °F 46.4 °F 100% 30.21 in 2.0 mi Calm Calm - N/A   Clear
2:35 AM 46.4 °F 46.4 °F 100% 30.21 in 0.5 mi Calm Calm - N/A   Unknown
2:55 AM 46.4 °F 46.4 °F 100% 30.21 in 1.0 mi Calm Calm - N/A   Clear
3:15 AM 44.6 °F 44.6 °F 100% 30.21 in 1.0 mi Calm Calm - N/A   Clear
3:35 AM 42.8 °F 41.0 °F 93% 30.21 in 0.5 mi Calm Calm - N/A   Mostly Cloudy
3:55 AM 44.6 °F 42.8 °F 93% 30.22 in 0.5 mi Calm Calm - N/A   Unknown
4:15 AM 44.6 °F 44.6 °F 100% 30.22 in 0.8 mi Calm Calm - N/A   Unknown
4:35 AM 44.6 °F 44.6 °F 100% 30.22 in 3.0 mi Calm Calm - N/A   Clear
4:55 AM 42.8 °F 42.8 °F 100% 30.23 in 1.2 mi Calm Calm - N/A   Clear
5:15 AM 42.8 °F 41.0 °F 93% 30.22 in 0.2 mi Calm Calm - N/A   Overcast
5:35 AM 44.6 °F 42.8 °F 93% 30.23 in 0.5 mi Calm Calm - N/A   Mostly Cloudy
5:55 AM 44.6 °F 44.6 °F 100% 30.23 in 0.5 mi Calm Calm - N/A   Overcast
6:15 AM 42.8 °F 41.0 °F 93% 30.23 in 1.8 mi Calm Calm - N/A   Overcast
6:35 AM 41.0 °F 39.2 °F 93% 30.23 in 0.2 mi Calm Calm - N/A   Overcast
6:55 AM 42.8 °F 41.0 °F 93% 30.24 in 0.2 mi Calm Calm - N/A   Overcast
7:15 AM 42.8 °F 42.8 °F 100% 30.24 in 0.2 mi Calm Calm - N/A   Overcast
7:35 AM 41.0 °F 41.0 °F 100% 30.25 in 0.2 mi Calm Calm - N/A   Overcast
7:55 AM 42.8 °F 42.8 °F 100% 30.25 in 0.2 mi Calm Calm - N/A   Overcast
8:15 AM 44.6 °F 44.6 °F 100% 30.26 in 1.0 mi Calm Calm - N/A   Mostly Cloudy
8:35 AM 48.2 °F 48.2 °F 100% 30.26 in 4.0 mi Calm Calm - N/A   Clear
8:55 AM 50.0 °F 50.0 °F 100% 30.27 in 7.0 mi Calm Calm - N/A   Clear
9:15 AM 53.6 °F 51.8 °F 94% 30.27 in 9.0 mi Calm Calm - N/A   Clear
9:35 AM 55.4 °F 53.6 °F 94% 30.27 in 10.0 mi Calm Calm - N/A   Clear
9:55 AM 57.2 °F 55.4 °F 94% 30.28 in 10.0 mi Calm Calm - N/A   Clear
10:15 AM 60.8 °F 55.4 °F 82% 30.28 in 10.0 mi South 3.5 mph - N/A   Clear
10:35 AM 60.8 °F 53.6 °F 77% 30.28 in 10.0 mi SE 8.1 mph - N/A   Clear
10:55 AM 62.6 °F 55.4 °F 77% 30.28 in 10.0 mi South 6.9 mph - N/A   Clear
11:15 AM 62.6 °F 55.4 °F 77% 30.28 in 10.0 mi South 5.8 mph - N/A   Clear
11:35 AM 64.4 °F 55.4 °F 73% 30.27 in 10.0 mi South 5.8 mph - N/A   Clear
11:55 AM 68.0 °F 55.4 °F 64% 30.27 in 10.0 mi East 8.1 mph - N/A   Clear
12:15 PM 69.8 °F 55.4 °F 60% 30.27 in 10.0 mi East 5.8 mph - N/A   Clear
12:35 PM 69.8 °F 55.4 °F 60% 30.26 in 10.0 mi Calm Calm - N/A   Clear
12:55 PM 69.8 °F 53.6 °F 56% 30.26 in 10.0 mi ESE 4.6 mph - N/A   Scattered Clouds
1:15 PM 71.6 °F 53.6 °F 53% 30.25 in 10.0 mi Calm Calm - N/A   Scattered Clouds
1:35 PM 69.8 °F 55.4 °F 60% 30.24 in 10.0 mi SSE 3.5 mph - N/A   Scattered Clouds
1:55 PM 69.8 °F 55.4 °F 60% 30.24 in 10.0 mi ENE 3.5 mph - N/A   Scattered Clouds
2:15 PM 69.8 °F 55.4 °F 60% 30.23 in 10.0 mi ESE 3.5 mph - N/A   Mostly Cloudy
2:35 PM 71.6 °F 53.6 °F 53% 30.22 in 10.0 mi Calm Calm - N/A   Mostly Cloudy
2:55 PM 69.8 °F 53.6 °F 56% 30.22 in 10.0 mi East 6.9 mph - N/A   Overcast
3:15 PM 71.6 °F 53.6 °F 53% 30.22 in 10.0 mi SSE 5.8 mph - N/A   Mostly Cloudy
3:35 PM 71.6 °F 53.6 °F 53% 30.21 in 10.0 mi SSE 5.8 mph - N/A   Scattered Clouds
3:55 PM 71.6 °F 53.6 °F 53% 30.20 in 10.0 mi ESE 5.8 mph - N/A   Partly Cloudy
4:15 PM 73.4 °F 53.6 °F 50% 30.19 in 10.0 mi SSE 6.9 mph - N/A   Mostly Cloudy
4:35 PM 71.6 °F 53.6 °F 53% 30.19 in 10.0 mi SE 4.6 mph - N/A   Scattered Clouds
4:55 PM 71.6 °F 51.8 °F 50% 30.19 in 10.0 mi SSE 5.8 mph - N/A   Scattered Clouds
5:15 PM 71.6 °F 51.8 °F 50% 30.19 in 10.0 mi ESE 8.1 mph - N/A   Mostly Cloudy
5:35 PM 71.6 °F 51.8 °F 50% 30.19 in 10.0 mi SE 8.1 mph - N/A   Partly Cloudy
5:55 PM 69.8 °F 51.8 °F 53% 30.19 in 10.0 mi ESE 6.9 mph - N/A   Clear
6:15 PM 69.8 °F 51.8 °F 53% 30.19 in 10.0 mi ESE 6.9 mph - N/A   Clear
6:35 PM 66.2 °F 51.8 °F 60% 30.19 in 10.0 mi East 6.9 mph - N/A   Clear
6:55 PM 64.4 °F 51.8 °F 64% 30.19 in 10.0 mi East 3.5 mph - N/A   Clear
7:15 PM 62.6 °F 51.8 °F 68% 30.18 in 10.0 mi Calm Calm - N/A   Clear
7:35 PM 59.0 °F 51.8 °F 77% 30.18 in 10.0 mi East 4.6 mph - N/A   Clear
7:55 PM 60.8 °F 51.8 °F 72% 30.18 in 10.0 mi East 5.8 mph - N/A   Clear
8:15 PM 60.8 °F 51.8 °F 72% 30.18 in 10.0 mi East 8.1 mph - N/A   Clear
8:35 PM 60.8 °F 50.0 °F 68% 30.19 in 10.0 mi East 5.8 mph - N/A   Clear
8:55 PM 59.0 °F 50.0 °F 72% 30.19 in 10.0 mi ESE 5.8 mph - N/A   Clear
9:15 PM 57.2 °F 50.0 °F 77% 30.19 in 10.0 mi Calm Calm - N/A   Clear
9:35 PM 53.6 °F 48.2 °F 82% 30.19 in 10.0 mi Calm Calm - N/A   Clear
9:55 PM 53.6 °F 48.2 °F 82% 30.19 in 10.0 mi Calm Calm - N/A   Clear
10:15 PM 53.6 °F 48.2 °F 82% 30.19 in 10.0 mi Calm Calm - N/A   Clear
10:35 PM 51.8 °F 48.2 °F 88% 30.19 in 10.0 mi Calm Calm - N/A   Clear
10:55 PM 51.8 °F 48.2 °F 88% 30.18 in 10.0 mi Calm Calm - N/A   Clear
11:15 PM 51.8 °F 46.4 °F 82% 30.18 in 10.0 mi Calm Calm - N/A   Clear
11:35 PM 51.8 °F 46.4 °F 82% 30.18 in 10.0 mi Calm Calm - N/A   Clear
11:55 PM 51.8 °F 48.2 °F 88% 30.17 in 10.0 mi Calm Calm - N/A   Clear